Winchester, TN

5:38 PM CDT on August 17, 2017 (GMT -0500)
Winchester Municipal

Weather History for KBGF - May, 2014

Change the Weather History Date:

Friday, May 16, 2014

  Actual Average (KTHA) Record (KTHA)
Temperature  
Mean Temperature 52 °F -  
Max Temperature 62 °F 77 °F 84 °F (2017)
Min Temperature 42 °F 53 °F 41 °F (2014)
Degree Days  
Heating Degree Days 13    
Growing Degree Days 2 (Base 50)    
Moisture  
Dew Point 41 °F    
Average Humidity 71    
Maximum Humidity 100    
Minimum Humidity 34    
Precipitation  
Precipitation 0.00 in - - ()
Sea Level Pressure  
Sea Level Pressure 30.09 in    
Wind  
Wind Speed 2 mph (WNW)    
Max Wind Speed 14 mph    
Max Gust Speed 22 mph    
Visibility 10 miles    
Events      
Averages and records for this station are not official NWS values.
T = Trace of Precipitation, MM = Missing Value Source: NWS Daily Summary

Daily Weather History Graph

Daily Weather History Graph

Search for Another Location

Airport or City:

Trip Planner

Search our weather history database for the weather conditions in past years. The results will help you decide how hot, cold, wet, or windy it might be!

Date:

Astronomy

May. 16, 2014 Rise Set
Actual Time 6:39 AM EDT 8:42 PM EDT
Civil Twilight 6:11 AM EDT 9:10 PM EDT
Nautical Twilight 5:37 AM EDT 9:44 PM EDT
Astronomical Twilight 5:00 AM EDT 10:21 PM EDT
Moon 10:48 PM EDT (5/16) 8:20 AM EDT (5/16)
Length of Visible Light 14h 59m
Length of Day
14h 02m
Waning Gibbous, 95% of the Moon is Illuminated
May 16
Waning Gibbous
May 21
Last Quarter
May 28
New
Jun 5
First Quarter
Jun 13
Full

Hourly Weather History & Observations

Time (EDT) Temp. Windchill Dew Point Humidity Pressure Visibility Wind Dir Wind Speed Gust Speed Precip Events Conditions
12:15 AM 44.6 °F - 44.6 °F 100% 30.12 in 10.0 mi Calm Calm - N/A   Clear
12:35 AM 44.6 °F - 44.6 °F 100% 30.10 in 10.0 mi Calm Calm - N/A   Clear
12:55 AM 44.6 °F - 44.6 °F 100% 30.10 in 10.0 mi Calm Calm - N/A   Clear
1:55 AM 44.6 °F - 42.8 °F 93% 30.10 in 10.0 mi Calm Calm - N/A   Clear
2:15 AM 44.6 °F - 42.8 °F 93% 30.09 in 10.0 mi Calm Calm - N/A   Clear
2:35 AM 42.8 °F - 42.8 °F 100% 30.08 in 10.0 mi Calm Calm - N/A   Clear
2:55 AM 44.6 °F - 44.6 °F 100% 30.09 in 10.0 mi Calm Calm - N/A   Clear
3:15 AM 42.8 °F - 42.8 °F 100% 30.08 in 10.0 mi Calm Calm - N/A   Clear
3:35 AM 42.8 °F 41.1 °F 42.8 °F 100% 30.08 in 10.0 mi SSE 3.5 mph - N/A   Clear
3:55 AM 42.8 °F 41.1 °F 41.0 °F 93% 30.07 in 10.0 mi SE 3.5 mph - N/A   Clear
4:15 AM 42.8 °F - 42.8 °F 100% 30.07 in 10.0 mi Calm Calm - N/A   Clear
4:35 AM 42.8 °F - 42.8 °F 100% 30.06 in 10.0 mi Calm Calm - N/A   Clear
4:55 AM 42.8 °F 41.1 °F 42.8 °F 100% 30.04 in 10.0 mi SE 3.5 mph - N/A   Clear
5:15 AM 44.6 °F - 42.8 °F 93% 30.05 in 10.0 mi Calm Calm - N/A   Mostly Cloudy
5:35 AM 44.6 °F - 44.6 °F 100% 30.04 in 10.0 mi Calm Calm - N/A   Overcast
5:55 AM 44.6 °F - 44.6 °F 100% 30.05 in 10.0 mi Calm Calm - N/A   Overcast
6:15 AM 44.6 °F - 44.6 °F 100% 30.05 in 10.0 mi Calm Calm - N/A   Overcast
6:35 AM 46.4 °F - 44.6 °F 93% 30.05 in 10.0 mi Calm Calm - N/A   Overcast
6:55 AM 46.4 °F 45.2 °F 44.6 °F 93% 30.06 in 10.0 mi NW 3.5 mph - N/A   Overcast
7:15 AM 46.4 °F - 44.6 °F 93% 30.06 in 10.0 mi Calm Calm - N/A   Mostly Cloudy
7:35 AM 46.4 °F - 44.6 °F 93% 30.07 in 10.0 mi Calm Calm - N/A   Mostly Cloudy
7:55 AM 48.2 °F - 46.4 °F 93% 30.07 in 10.0 mi Calm Calm - N/A   Overcast
8:15 AM 48.2 °F - 46.4 °F 93% 30.08 in 10.0 mi Calm Calm - N/A   Overcast
8:35 AM 48.2 °F - 46.4 °F 93% 30.09 in 10.0 mi Calm Calm - N/A   Mostly Cloudy
8:55 AM 48.2 °F - 46.4 °F 93% 30.09 in 10.0 mi Calm Calm - N/A   Overcast
9:15 AM 48.2 °F - 46.4 °F 93% 30.09 in 10.0 mi Calm Calm - N/A   Mostly Cloudy
9:35 AM 51.8 °F - 46.4 °F 82% 30.09 in 10.0 mi Calm Calm - N/A   Mostly Cloudy
9:55 AM 51.8 °F - 46.4 °F 82% 30.09 in 10.0 mi Calm Calm - N/A   Mostly Cloudy
10:15 AM 53.6 °F - 48.2 °F 82% 30.09 in 10.0 mi Calm Calm - N/A   Mostly Cloudy
10:35 AM 53.6 °F - 48.2 °F 82% 30.09 in 10.0 mi West 3.5 mph - N/A   Mostly Cloudy
10:55 AM 51.8 °F - 46.4 °F 82% 30.11 in 10.0 mi WNW 8.1 mph - N/A   Mostly Cloudy
11:15 AM 53.6 °F - 46.4 °F 77% 30.11 in 10.0 mi WNW 8.1 mph - N/A   Mostly Cloudy
11:35 AM 55.4 °F - 44.6 °F 67% 30.11 in 10.0 mi NW 8.1 mph - N/A   Mostly Cloudy
11:55 AM 55.4 °F - 44.6 °F 67% 30.11 in 10.0 mi WNW 8.1 mph - N/A   Mostly Cloudy
12:15 PM 57.2 °F - 41.0 °F 55% 30.11 in 10.0 mi WNW 8.1 mph - N/A   Scattered Clouds
12:35 PM 57.2 °F - 39.2 °F 51% 30.10 in 10.0 mi WNW 9.2 mph - N/A   Partly Cloudy
12:55 PM 57.2 °F - 35.6 °F 44% 30.11 in 10.0 mi WNW 12.7 mph - N/A   Scattered Clouds
1:15 PM 59.0 °F - 35.6 °F 42% 30.11 in 10.0 mi NW 10.4 mph - N/A   Partly Cloudy
1:35 PM 60.8 °F - 33.8 °F 36% 30.11 in 10.0 mi WNW 12.7 mph - N/A   Partly Cloudy
1:55 PM 60.8 °F - 32.0 °F 34% 30.10 in 10.0 mi West 13.8 mph - N/A   Clear
2:15 PM 60.8 °F - 32.0 °F 34% 30.10 in 10.0 mi WNW 10.4 mph - N/A   Clear
2:35 PM 60.8 °F - 33.8 °F 36% 30.10 in 10.0 mi WNW 8.1 mph - N/A   Scattered Clouds
2:55 PM 59.0 °F - 33.8 °F 39% 30.10 in 10.0 mi Variable 6.9 mph - N/A   Scattered Clouds
3:15 PM 60.8 °F - 33.8 °F 36% 30.10 in 10.0 mi West 9.2 mph - N/A   Partly Cloudy
3:35 PM 60.8 °F - 33.8 °F 36% 30.10 in 10.0 mi West 11.5 mph 21.9 mph N/A   Scattered Clouds
3:55 PM 62.6 °F - 33.8 °F 34% 30.10 in 10.0 mi WNW 9.2 mph - N/A   Partly Cloudy
4:15 PM 60.8 °F - 33.8 °F 36% 30.10 in 10.0 mi WNW 10.4 mph - N/A   Partly Cloudy
4:35 PM 60.8 °F - 33.8 °F 36% 30.10 in 10.0 mi WNW 8.1 mph - N/A   Scattered Clouds
4:55 PM 60.8 °F - 33.8 °F 36% 30.09 in 10.0 mi WNW 6.9 mph - N/A   Clear
5:15 PM 60.8 °F - 33.8 °F 36% 30.09 in 10.0 mi WNW 6.9 mph - N/A   Clear
5:35 PM 62.6 °F - 33.8 °F 34% 30.09 in 10.0 mi WNW 9.2 mph - N/A   Partly Cloudy
5:55 PM 60.8 °F - 35.6 °F 39% 30.09 in 10.0 mi NNW 8.1 mph - N/A   Clear
6:15 PM 62.6 °F - 35.6 °F 37% 30.09 in 10.0 mi NW 8.1 mph - N/A   Partly Cloudy
6:35 PM 60.8 °F - 33.8 °F 36% 30.09 in 10.0 mi NW 5.8 mph - N/A   Partly Cloudy
6:55 PM 59.0 °F - 35.6 °F 42% 30.09 in 10.0 mi Calm Calm - N/A   Scattered Clouds
7:15 PM 60.8 °F - 35.6 °F 39% 30.09 in 10.0 mi Calm Calm - N/A   Mostly Cloudy
7:35 PM 57.2 °F - 39.2 °F 51% 30.09 in 10.0 mi North 5.8 mph - N/A   Mostly Cloudy
7:55 PM 57.2 °F - 39.2 °F 51% 30.10 in 10.0 mi North 3.5 mph - N/A   Scattered Clouds
8:15 PM 55.4 °F - 39.2 °F 54% 30.10 in 10.0 mi NNE 3.5 mph - N/A   Partly Cloudy
8:35 PM 55.4 °F - 41.0 °F 58% 30.11 in 10.0 mi Calm Calm - N/A   Partly Cloudy
8:55 PM 53.6 °F - 42.8 °F 67% 30.12 in 10.0 mi Calm Calm - N/A   Partly Cloudy
9:15 PM 51.8 °F - 42.8 °F 71% 30.12 in 10.0 mi Calm Calm - N/A   Clear
9:35 PM 50.0 °F - 44.6 °F 82% 30.12 in 10.0 mi Calm Calm - N/A   Clear
9:55 PM 50.0 °F - 44.6 °F 82% 30.12 in 10.0 mi Calm Calm - N/A   Clear
10:15 PM 51.8 °F - 44.6 °F 76% 30.13 in 10.0 mi Calm Calm - N/A   Clear
10:35 PM 50.0 °F - 44.6 °F 82% 30.13 in 10.0 mi Calm Calm - N/A   Clear
10:55 PM 48.2 °F - 44.6 °F 87% 30.13 in 10.0 mi Calm Calm - N/A   Clear
11:15 PM 48.2 °F - 42.8 °F 82% 30.13 in 10.0 mi Calm Calm - N/A   Clear
11:35 PM 46.4 °F - 42.8 °F 87% 30.13 in 10.0 mi Calm Calm - N/A   Clear
11:55 PM 46.4 °F - 42.8 °F 87% 30.13 in 10.0 mi Calm Calm - N/A   Clear